RH
26 20 15 14 14 18 23 28 29 30 33 36 37 37 37 40 42 39 36 34 26 19 20 19 16 20 31 40 37 27 25 26 25 27 32 36 39 41 43 45 43 42 40 38 37 37 38 36 34 32 30 28 28 28 29 30 31 33 34 35 35 33 33 39 46 46 38 28 21 17 15 15 16 17 17 18 18 18 21 30 46 63 73 76 76
29 21 16 12 12 15 17 20 23 24 28 35 40 44 45 46 47 42 38 36 26 19 20 18 16 23 35 36 27 23 25 26 29 35 41 45 48 49 50 50 47 44 40 37 35 35 36 35 31 30 30 28 27 27 29 31 31 33 35 37 38 35 38 50 56 52 44 31 22 18 16 16 18 18 18 18 19 20 20 23 32 46 61 73 81
30 22 16 12 11 13 12 13 15 16 20 27 36 44 46 50 50 43 40 36 25 18 19 17 18 28 34 29 23 24 26 28 35 42 47 50 51 50 50 49 47 44 41 40 39 39 41 41 34 31 32 31 26 24 26 28 29 31 33 36 37 36 41 49 46 37 31 25 20 17 17 18 19 18 18 19 20 21 22 23 26 33 49 70 85
34 27 21 15 12 11 10 9 9 9 12 16 25 35 40 47 49 43 40 34 23 18 19 17 21 30 30 25 25 26 27 33 41 47 50 50 49 46 43 41 40 40 41 42 44 47 49 48 44 39 39 38 31 24 23 24 26 29 32 37 44 49 53 54 43 28 21 20 19 18 19 18 18 18 19 21 22 23 25 27 28 30 40 59 75
37 34 29 21 14 11 10 9 7 6 8 8 15 23 31 42 48 44 39 30 21 19 19 17 24 30 27 25 27 28 31 38 44 48 51 49 44 39 36 38 42 46 50 50 51 54 54 56 58 56 50 45 38 30 24 23 23 26 33 40 46 50 53 54 47 31 20 20 20 19 19 18 18 19 20 21 22 22 25 29 32 36 42 56 71
41 38 34 26 18 12 11 11 9 8 7 6 11 18 29 42 48 45 37 26 20 21 19 20 26 28 27 26 27 30 35 41 45 50 52 46 40 38 42 48 54 60 64 62 60 58 55 56 63 65 59 52 44 35 29 26 26 29 36 39 36 33 34 39 40 31 22 20 21 20 20 20 21 22 22 22 21 22 24 27 33 38 42 59 82
43 40 37 31 23 16 12 13 12 10 9 9 13 21 33 44 46 40 31 23 22 22 20 23 28 29 28 27 28 33 38 44 50 54 50 44 43 48 52 55 58 63 65 62 60 59 55 53 56 58 57 53 48 41 34 30 30 31 33 31 25 22 23 26 27 24 21 20 21 21 21 22 23 24 24 22 21 21 21 24 33 36 30 41 72
44 41 40 33 26 21 16 14 14 13 11 11 15 20 30 37 37 33 27 22 23 24 23 26 31 31 29 27 30 37 43 49 55 54 48 47 51 56 56 53 55 60 64 65 64 62 59 53 49 51 53 50 48 45 38 32 30 28 25 22 21 21 22 22 22 22 22 22 22 22 23 24 24 24 23 21 21 20 18 20 26 30 25 25 43
44 42 38 31 27 26 22 16 15 14 12 12 13 15 20 26 29 30 27 23 25 27 26 29 33 32 30 30 34 41 48 54 57 52 49 51 55 56 56 53 54 61 71 77 75 69 63 53 47 51 53 49 48 47 40 34 30 26 23 23 23 24 24 24 24 24 23 23 24 24 24 24 23 22 22 21 21 19 19 20 19 21 24 25 37
46 42 38 32 30 30 25 18 15 15 15 14 13 12 14 18 23 28 26 24 27 30 28 30 34 34 33 35 40 46 51 57 59 54 51 53 55 57 58 58 62 68 76 82 81 74 66 54 47 52 54 49 48 46 40 35 32 29 28 27 27 27 26 25 25 25 25 24 24 24 23 23 23 22 21 21 21 19 19 19 18 19 21 26 50
49 44 41 38 36 34 28 23 18 15 17 18 18 16 13 13 18 24 25 25 28 31 31 32 34 35 38 44 48 51 55 61 64 57 49 50 55 59 62 66 73 77 79 84 85 80 72 60 47 46 47 45 45 43 38 36 35 33 32 31 29 28 27 26 26 26 25 24 24 23 22 22 23 22 21 21 20 19 19 17 16 20 20 28 61
54 49 47 45 42 38 35 32 27 20 18 19 20 21 19 15 15 18 22 25 28 31 33 34 34 37 43 50 52 54 59 64 61 52 46 51 59 64 67 74 80 82 85 88 84 79 78 71 56 45 42 43 42 40 38 38 37 34 32 30 29 28 28 27 27 25 24 23 23 23 23 22 22 22 20 20 19 17 17 17 16 19 21 28 50
64 60 58 55 48 44 42 41 37 32 26 21 21 23 22 20 18 17 21 25 27 31 34 34 37 42 48 51 52 54 59 60 54 48 50 59 66 68 71 75 78 81 85 83 77 75 79 76 59 44 40 41 40 39 39 38 36 33 32 30 30 30 28 27 26 24 24 23 23 23 23 22 21 20 18 17 17 16 16 16 17 19 21 23 29
70 67 67 65 58 51 48 48 45 42 37 30 24 22 22 24 23 20 22 24 24 30 34 35 41 48 51 52 51 52 57 56 52 53 57 63 67 69 72 75 78 81 83 80 79 80 80 72 56 43 40 41 41 40 39 36 33 32 32 32 31 30 28 26 25 24 23 23 23 23 22 21 19 18 17 16 16 16 16 17 19 20 22 24 25
69 70 70 70 65 55 51 53 52 49 46 41 35 27 23 25 25 24 24 22 23 29 34 38 46 53 54 52 49 51 57 57 55 57 60 62 67 70 72 75 79 83 83 83 85 85 81 70 55 45 42 43 42 39 36 35 34 34 33 33 31 29 27 26 24 23 23 22 22 21 21 20 18 16 16 16 17 17 18 19 22 24 26 30 34
69 72 72 71 68 59 52 54 57 56 53 50 46 39 30 25 24 25 24 21 22 27 30 39 50 54 56 54 49 54 62 61 60 63 63 63 67 71 73 75 77 82 84 84 84 82 77 67 54 48 47 44 41 39 37 36 36 35 34 32 30 28 26 24 22 22 21 20 21 20 18 17 16 16 17 18 19 21 23 26 30 34 37 40 42
72 73 72 72 72 67 59 54 57 60 58 55 54 49 41 32 25 23 21 20 22 24 28 42 53 56 58 54 50 59 68 65 65 69 67 66 68 70 74 75 76 78 80 77 75 75 72 62 51 49 49 44 40 40 40 39 38 35 33 31 28 26 23 21 20 20 21 21 19 17 16 16 17 19 21 23 25 29 33 37 40 40 40 38 36
71 72 71 72 75 76 70 59 58 62 61 58 57 55 49 40 30 24 21 21 24 26 32 45 53 55 56 51 51 63 68 64 67 71 68 68 70 71 75 77 76 75 72 68 68 72 72 62 52 49 46 41 40 41 40 38 36 33 30 28 25 22 19 18 20 20 20 19 16 16 16 17 19 23 27 31 36 38 39 39 38 34 30 27 24
61 68 72 75 77 79 75 65 61 62 62 60 59 57 54 47 37 29 24 23 27 29 34 43 51 55 54 50 55 65 65 63 68 70 68 70 72 73 76 77 76 73 68 64 65 68 67 60 51 46 42 38 37 36 35 34 32 29 27 24 21 19 18 19 20 19 18 16 16 16 17 19 23 29 35 39 40 39 36 32 28 23 18 15 14
63 73 76 77 78 76 74 69 64 61 61 61 60 58 56 52 45 36 29 27 29 30 34 41 50 55 53 51 58 63 62 64 69 68 69 74 75 75 77 77 74 70 64 62 63 64 62 57 50 45 40 36 34 32 31 30 28 25 22 19 19 19 19 19 18 17 16 15 15 16 18 24 32 37 40 40 36 31 25 19 14 10 8 7 6
66 77 78 76 76 75 73 70 65 60 61 64 64 61 57 55 51 43 34 30 30 32 38 44 51 55 54 53 59 63 62 65 67 67 72 76 76 75 76 77 73 64 57 56 59 60 60 56 50 44 38 35 33 31 30 28 24 21 19 18 20 20 18 18 17 15 14 13 15 19 26 34 40 41 37 31 24 17 12 8 5 4 4 4 4
67 77 82 81 80 77 75 72 65 59 61 66 70 69 65 63 59 51 41 35 33 36 42 49 54 57 55 55 61 65 66 67 69 72 75 77 75 74 75 76 71 59 51 51 55 59 60 57 51 44 38 34 32 30 27 24 21 19 18 19 20 19 17 16 13 12 12 14 20 28 37 42 41 34 26 17 10 7 4 4 4 4 4 5 4
68 71 77 81 80 78 78 75 68 62 59 62 68 72 72 70 67 60 51 43 38 41 48 54 58 60 59 61 65 69 72 74 73 72 74 74 72 71 73 75 69 57 50 49 54 60 63 59 52 44 37 32 29 26 23 21 19 19 19 19 18 17 15 12 11 12 15 21 29 38 43 40 31 20 12 6 4 4 4 4 5 4 4 4 4
69 66 67 70 71 74 78 78 75 70 65 61 64 70 73 72 68 65 59 51 45 47 52 56 59 63 65 65 66 72 79 78 69 64 67 73 73 72 74 76 68 57 50 50 56 64 66 61 53 42 34 30 26 22 20 19 19 19 18 18 17 13 11 10 12 15 21 30 39 43 38 27 16 8 5 4 4 4 5 5 5 5 5 5 5
65 66 67 67 66 68 73 75 75 76 73 67 62 64 70 74 70 66 64 59 53 51 52 54 56 61 66 65 65 74 80 73 61 59 65 73 76 75 76 76 68 57 51 53 59 66 68 64 53 39 30 25 21 19 19 19 18 18 17 16 13 9 9 12 16 22 32 40 43 36 24 13 7 4 4 4 5 5 6 6 6 5 5 5 5
53 58 63 65 65 66 67 65 64 65 67 67 64 61 64 70 71 67 64 64 60 54 53 57 57 57 63 66 67 75 78 69 61 63 69 74 75 74 74 73 67 59 56 56 61 66 70 67 53 35 24 21 18 19 19 18 17 16 14 11 9 9 12 17 24 33 40 41 33 22 11 6 4 4 4 5 6 7 7 7 7 6 5 5 6
45 46 49 54 58 61 63 62 59 56 54 56 61 62 61 64 70 71 67 65 66 62 60 63 63 62 65 68 70 78 81 71 63 67 72 72 71 69 70 72 70 64 61 61 62 67 72 69 50 29 19 19 19 18 18 16 16 14 10 8 9 12 18 27 35 41 38 29 19 11 6 4 4 5 6 7 7 8 9 9 8 7 6 6 7
38 38 39 42 45 47 50 52 53 54 52 49 53 59 62 61 65 71 70 65 64 67 68 69 68 68 71 70 67 75 82 73 61 62 67 67 67 68 70 74 73 68 66 66 65 68 72 65 42 22 18 20 19 17 17 16 13 10 7 8 12 18 28 37 40 35 26 18 11 6 4 4 5 6 8 8 9 10 10 9 9 8 7 7 8
39 39 40 41 42 43 44 44 45 49 50 48 49 56 65 65 61 64 70 68 63 65 71 72 69 69 75 72 63 70 84 77 58 53 60 65 66 66 70 76 76 72 70 69 67 70 68 51 29 18 19 19 17 16 16 13 10 7 8 11 16 25 34 36 30 23 17 11 7 4 4 6 7 8 9 10 11 11 11 11 11 9 8 8 9
44 44 44 45 46 46 47 48 49 50 50 51 51 51 58 65 62 58 63 67 64 62 66 70 68 68 74 72 64 71 85 74 51 49 61 66 62 63 71 79 81 78 74 70 70 70 58 35 20 19 19 17 16 15 13 9 8 8 11 15 21 27 29 25 19 16 13 7 4 4 6 7 8 10 11 11 12 12 12 12 12 11 10 10 9
40 42 43 44 46 48 50 52 52 51 49 50 52 50 52 60 62 58 59 64 66 65 63 66 70 71 71 68 67 76 80 63 48 54 61 59 60 69 78 83 84 81 77 72 71 65 43 22 17 20 18 15 15 13 10 8 8 10 14 18 21 20 18 17 15 13 8 4 4 6 7 8 10 10 11 13 13 14 14 14 13 13 13 11 10
41 44 48 51 51 50 49 47 46 45 42 41 43 47 51 55 60 65 65 65 72 78 74 69 70 72 69 65 67 73 69 54 49 54 54 55 69 82 85 86 85 82 78 75 68 52 30 18 19 19 15 15 14 9 7 8 8 11 14 15 14 13 13 15 13 9 5 4 5 6 7 9 11 11 12 13 14 14 15 15 15 15 15 14 12
39 41 44 47 46 42 41 37 32 30 30 30 31 36 43 51 58 64 64 65 77 92 90 76 71 76 77 72 70 71 66 52 47 51 56 65 79 84 85 89 89 83 80 76 59 37 21 18 20 17 14 14 11 7 7 8 9 10 11 10 10 12 13 13 10 6 4 5 5 7 9 10 11 12 12 12 13 14 15 16 16 17 16 16 14
31 33 35 36 36 38 40 38 32 26 22 21 23 29 45 60 64 62 63 66 76 88 90 84 80 79 77 74 74 75 66 49 43 55 71 82 85 83 86 92 88 84 84 72 46 25 19 19 18 15 13 11 8 6 8 9 8 9 8 7 9 11 11 11 7 4 4 6 7 8 10 10 10 10 10 11 12 13 14 16 17 18 18 17 15
29 34 43 50 54 59 58 52 52 54 51 44 34 26 35 56 67 68 71 75 79 85 87 83 77 70 65 69 77 75 59 44 47 65 80 87 89 90 91 90 87 86 81 59 32 19 20 19 16 13 11 8 7 7 8 8 7 7 7 8 10 11 10 8 5 4 5 7 8 9 10 9 9 8 8 9 10 11 13 16 17 18 19 19 17
32 47 63 70 74 78 73 66 72 83 85 83 76 60 53 62 72 75 77 81 89 96 90 76 68 66 64 64 65 59 51 53 66 77 78 80 89 93 87 84 84 78 61 38 22 19 20 17 13 11 9 7 7 7 7 7 6 6 7 9 11 11 9 6 4 5 6 7 8 9 9 8 7 7 7 8 9 10 12 14 17 19 20 19 19
47 69 84 86 86 87 81 75 83 92 91 92 98 97 95 96 93 88 86 87 91 94 90 81 76 72 63 57 57 59 63 71 81 83 78 80 88 89 82 77 72 56 36 23 19 19 18 14 11 9 7 7 7 7 6 6 5 5 7 10 11 11 8 5 4 5 6 7 8 9 7 7 7 7 8 9 9 9 11 13 16 19 20 20 20
66 76 77 75 79 85 81 75 82 93 94 92 91 91 94 100 99 96 96 94 91 91 92 90 79 64 54 56 64 70 73 77 84 91 90 87 86 85 77 66 51 34 23 20 20 18 15 12 10 8 7 7 7 6 5 5 6 6 8 10 10 9 6 4 4 5 6 8 9 8 7 7 7 8 9 9 9 9 10 12 15 18 20 21 21
70 71 67 64 68 74 75 74 82 92 97 98 97 96 97 100 101 99 99 99 96 93 86 75 60 49 50 62 72 76 80 87 94 99 96 90 85 81 68 49 33 24 21 20 18 15 13 10 8 7 7 7 6 6 6 5 5 6 7 8 9 7 5 4 4 6 8 9 8 7 7 7 9 10 11 11 11 11 11 11 13 16 19 22 22
54 55 58 60 61 61 62 66 74 81 84 87 91 94 96 97 97 96 95 92 87 77 63 50 44 44 52 62 69 73 81 91 95 96 95 91 83 69 51 34 25 22 21 19 17 14 11 9 8 7 7 7 6 5 5 5 5 6 7 8 7 5 4 4 5 6 8 9 8 7 7 9 11 12 12 12 13 13 12 12 13 14 17 21 23
53 51 51 55 65 72 71 66 65 66 67 68 66 65 65 66 66 66 65 63 62 59 54 53 55 59 63 68 71 76 85 92 93 90 87 81 67 50 36 27 23 21 20 17 15 12 9 8 8 7 6 6 6 5 5 5 5 6 7 7 6 5 4 4 6 8 9 9 8 7 8 10 12 13 13 14 14 14 14 14 13 13 15 18 22
63 59 52 53 67 80 81 77 74 71 69 68 65 61 59 59 58 58 60 62 65 69 70 71 73 76 79 82 86 90 95 97 93 85 76 65 51 38 29 24 22 20 19 15 12 10 9 8 7 7 6 6 6 5 5 5 5 5 6 6 5 4 3 4 6 9 9 9 8 8 9 11 13 13 13 14 14 14 14 15 14 14 14 15 19
77 72 62 54 57 63 68 75 80 78 73 74 75 72 71 73 75 77 81 83 85 87 88 88 88 90 92 95 97 98 95 90 84 77 68 55 42 31 25 22 20 18 16 13 11 9 8 7 7 7 7 6 6 5 5 5 4 4 5 5 4 4 4 5 7 9 10 9 8 8 10 12 13 13 14 14 14 14 14 15 15 15 15 15 16
89 87 79 67 59 56 58 66 74 75 73 75 77 76 76 79 84 90 94 96 97 98 98 97 98 99 100 99 98 96 91 84 75 66 56 44 34 26 22 20 19 16 13 11 10 9 7 7 7 7 7 6 6 5 5 4 4 5 5 5 4 3 4 5 8 9 9 9 8 9 10 12 13 13 13 13 14 14 14 15 15 15 15 15 15
93 93 91 86 77 68 65 69 76 80 78 75 76 81 86 89 93 97 99 99 99 100 99 100 100 99 97 96 94 89 82 74 63 52 42 32 25 21 19 18 16 14 12 10 9 8 7 7 7 7 7 6 6 5 5 5 5 6 6 4 4 4 4 6 9 10 10 9 9 9 10 12 13 13 13 13 13 14 14 14 15 16 16 16 16
98 94 95 95 89 82 81 84 86 84 79 72 71 80 91 97 98 98 97 96 97 100 101 101 99 94 91 90 86 76 63 52 41 33 27 23 19 19 18 16 14 12 11 10 8 7 7 7 7 7 7 6 5 5 5 5 7 7 6 4 3 3 4 6 9 10 10 10 9 9 10 12 12 13 13 13 13 14 14 14 15 16 16 16 17
100 98 98 97 92 89 91 92 89 87 87 83 78 77 83 88 90 93 95 96 97 98 98 94 88 83 80 75 65 51 39 32 28 24 22 20 19 17 16 14 13 12 10 8 8 7 7 7 8 7 7 6 5 5 5 6 7 7 5 4 4 4 5 7 9 10 10 10 9 9 10 12 12 13 13 13 13 13 13 14 15 15 16 17 17
98 100 99 98 96 96 97 97 94 94 97 98 93 89 89 91 93 96 100 97 90 87 86 83 75 66 57 47 40 35 31 28 25 23 21 19 17 16 15 13 12 10 9 8 8 8 7 8 8 8 7 6 6 5 5 5 6 5 4 4 3 4 5 7 9 10 10 11 10 10 10 11 12 13 13 13 13 13 13 14 15 15 16 17 17
98 101 101 100 99 99 98 99 99 98 99 100 99 98 99 99 96 96 98 97 91 87 89 92 90 80 65 50 41 36 32 27 23 21 19 17 16 15 14 12 10 9 9 8 8 7 8 8 8 8 7 7 6 5 5 5 5 4 4 4 4 5 6 8 9 10 10 11 11 11 10 11 12 13 13 13 13 13 13 14 14 15 16 17 17
94 97 99 100 100 100 100 100 99 99 99 100 99 99 99 99 98 97 97 98 97 96 97 99 99 95 91 87 75 56 39 31 26 21 17 16 16 14 13 12 11 9 9 8 8 8 8 8 8 8 7 7 6 6 5 5 4 4 3 3 4 5 6 8 8 9 10 11 12 11 11 11 12 12 12 13 13 13 13 13 14 14 16 16 16
86 89 95 99 100 99 100 100 100 99 98 98 99 100 100 98 99 100 100 99 99 99 100 99 98 99 102 102 86 59 37 28 24 19 17 17 16 14 13 12 10 9 9 8 8 8 8 8 8 8 7 7 6 6 5 5 4 3 3 4 4 5 7 8 8 9 10 11 12 12 11 11 11 12 12 13 13 13 13 13 13 14 15 16 17
Wind_Speed
15 14 14 15 17 19 22 24 25 26 26 26 25 25 26 25 26 27 24 21 19 18 18 17 15 12 10 10 10 9 9 11 12 12 11 12 14 16 16 17 17 18 19 20 21 22 23 24 24 24 24 23 22 22 22 24 26 27 29 30 30 29 29 29 29 30 30 29 29 29 30 31 32 33 33 33 31 29 28 28 29 30 32 33 35
15 15 15 15 16 18 21 23 25 26 26 27 26 27 27 26 27 28 26 22 20 19 19 18 15 13 11 11 11 10 10 11 11 10 10 12 14 16 17 18 19 20 22 23 24 25 26 27 27 26 26 26 25 23 23 25 27 28 29 30 29 28 27 27 28 29 30 30 30 30 32 33 34 35 35 35 34 32 30 29 30 31 32 33 35
15 15 14 14 15 17 19 21 24 26 27 28 28 28 28 28 28 28 27 24 21 20 21 19 16 14 13 12 11 11 11 11 10 10 11 13 15 17 19 20 22 23 24 25 26 27 28 29 29 29 28 28 28 27 27 28 29 31 32 31 30 29 27 27 29 29 30 31 31 32 33 35 36 37 37 36 35 34 32 31 30 31 32 34 35
16 15 14 14 15 16 16 18 21 23 26 27 28 29 29 28 28 28 28 25 22 22 22 19 17 15 14 13 12 12 12 11 10 10 12 14 16 18 20 23 25 27 28 29 29 30 30 31 31 30 29 29 29 29 29 30 31 32 33 33 32 31 30 30 30 31 31 32 33 34 35 36 37 38 39 38 36 35 33 32 30 30 31 34 35
17 16 15 15 16 15 15 16 17 19 23 25 27 29 29 28 27 28 28 25 22 23 22 19 17 16 15 14 13 13 12 10 10 12 13 15 18 20 22 24 27 28 29 30 30 30 31 32 32 31 29 29 29 29 29 30 31 32 33 33 32 32 32 32 32 32 32 32 34 36 38 38 38 39 40 40 38 36 35 33 31 30 30 32 34
19 18 16 16 16 16 15 14 14 15 19 22 25 28 28 27 27 29 29 25 23 23 22 19 17 17 16 15 13 12 11 10 11 13 14 17 19 22 24 25 27 27 28 28 28 28 30 30 30 30 29 28 29 29 29 30 31 32 32 32 33 32 32 32 32 32 33 34 35 37 38 39 39 40 41 40 39 38 37 35 34 32 31 31 31
21 19 18 16 16 16 15 14 13 13 16 21 25 27 27 27 27 29 29 26 24 24 21 19 19 18 16 15 13 12 10 10 11 13 15 18 20 23 25 25 26 26 26 26 26 28 30 30 30 30 29 28 28 29 29 29 30 31 31 31 31 32 32 32 33 33 34 36 36 37 38 39 40 41 41 41 40 40 40 38 35 34 35 33 31
22 20 19 17 16 16 17 16 14 14 16 21 26 28 28 28 28 30 31 27 24 24 22 21 21 19 16 14 13 11 10 10 12 14 16 19 21 23 25 26 27 27 26 27 28 30 32 34 33 32 30 29 28 29 28 28 28 28 29 30 30 31 32 33 34 35 36 37 38 39 39 39 40 41 42 42 42 42 42 41 39 37 38 37 33
25 22 19 16 15 16 18 19 18 17 17 20 25 27 29 29 29 31 32 28 24 24 24 23 21 18 15 14 13 11 10 11 12 15 17 19 22 24 25 26 27 27 27 28 30 32 34 36 36 34 31 30 29 29 29 28 27 27 27 29 30 31 33 34 36 37 37 38 39 41 40 40 41 42 42 43 44 45 44 44 44 42 41 40 36
26 24 19 15 16 18 19 20 21 21 20 20 23 26 29 30 31 32 32 28 26 26 25 23 20 17 16 15 14 12 11 12 14 16 18 19 22 24 24 25 26 27 28 28 30 33 34 35 35 34 33 31 29 29 29 29 28 28 28 29 31 32 34 36 38 39 40 40 40 41 42 42 42 43 44 44 45 46 46 45 46 44 44 42 36
26 25 21 18 20 20 19 20 21 23 24 24 24 25 28 31 32 33 32 30 27 27 25 21 19 17 17 16 14 13 12 13 14 17 19 21 23 23 23 24 25 27 29 29 30 33 34 34 34 33 33 31 29 29 30 30 30 30 30 31 32 34 36 38 40 41 41 40 40 41 42 43 44 45 46 46 46 47 47 47 46 45 45 42 35
24 25 23 23 23 23 22 22 21 22 24 26 27 27 28 31 33 34 33 30 28 27 24 21 19 18 18 16 14 13 13 13 15 18 21 22 22 22 22 24 26 28 30 32 33 34 35 35 34 34 33 32 31 32 32 31 31 30 31 32 33 36 38 40 41 41 42 41 41 42 44 45 45 46 47 48 48 48 48 48 47 45 45 43 39
24 25 26 27 26 25 25 25 23 22 23 25 28 30 30 31 32 34 34 31 29 27 24 21 20 19 18 17 16 15 15 15 16 19 20 20 21 22 23 25 27 29 32 34 35 36 35 35 36 35 34 33 33 34 34 32 32 31 32 34 36 38 40 41 42 42 42 42 43 44 45 46 46 47 48 49 49 50 49 48 47 46 45 44 43
25 26 28 30 30 29 28 29 27 25 25 27 28 30 31 31 31 33 34 32 30 27 24 22 21 20 19 19 19 18 17 16 18 19 19 20 21 23 24 27 29 31 33 34 34 34 34 34 36 36 35 34 34 34 33 33 32 33 34 36 38 39 41 42 43 43 44 44 45 45 46 47 47 48 50 50 50 50 50 48 47 47 46 46 45
27 27 28 30 32 32 31 30 30 29 29 29 30 30 30 31 32 33 33 33 30 28 25 23 22 22 22 22 21 19 17 17 18 19 19 20 22 24 26 28 30 32 33 33 32 32 33 34 37 37 35 33 33 33 33 33 34 35 37 38 39 41 42 43 44 45 46 46 46 47 48 49 49 50 51 51 51 51 50 49 47 47 47 46 45
29 30 30 31 32 33 32 32 32 33 33 32 31 30 30 31 32 33 33 33 32 30 27 25 24 25 24 23 22 19 16 17 19 19 19 21 23 25 27 29 31 32 33 32 32 33 34 35 37 37 35 33 32 32 32 34 36 37 38 39 40 42 43 45 45 46 47 48 48 49 49 50 50 51 51 51 51 50 50 48 47 47 47 47 47
34 34 33 33 33 35 35 34 33 34 35 35 33 32 31 31 33 34 34 34 34 32 29 27 27 27 26 24 22 18 17 18 19 19 20 22 24 26 28 30 32 32 31 32 32 33 34 35 37 36 35 34 34 33 33 35 36 38 39 40 41 43 44 46 46 47 48 49 49 50 50 50 50 50 50 50 49 49 48 48 48 48 49 49 49
38 37 35 34 35 36 36 36 34 35 37 36 35 34 32 31 32 34 34 34 34 33 31 29 30 29 27 25 22 19 18 19 19 20 21 23 25 27 28 30 31 31 32 32 32 33 34 36 38 37 36 35 35 34 35 36 37 39 40 41 42 44 46 47 48 48 49 49 50 51 50 50 50 49 48 48 47 47 48 48 49 49 49 49 49
40 39 37 36 35 34 36 37 37 37 37 37 36 36 35 32 32 34 35 34 34 35 34 33 33 31 29 26 23 21 19 20 20 21 22 24 26 28 29 30 31 32 33 32 33 34 35 36 37 37 36 36 36 36 36 38 39 40 41 42 44 45 47 48 48 49 49 50 50 50 50 49 48 47 46 46 47 48 48 49 48 48 48 47 47
44 43 42 41 37 34 35 38 38 38 38 38 37 38 37 34 34 35 35 35 36 38 37 35 34 33 30 27 24 21 21 21 22 23 23 25 27 29 30 31 31 33 33 33 33 34 35 36 37 37 36 36 36 36 37 38 40 41 42 43 44 46 47 48 48 49 50 50 50 49 48 47 46 45 46 47 48 48 48 47 46 46 46 46 46
46 46 46 45 42 37 36 38 39 40 40 39 39 40 40 37 36 36 37 37 39 39 38 37 36 34 31 28 25 23 22 23 23 24 25 27 29 30 31 31 32 33 34 34 34 35 35 36 37 37 36 35 36 36 37 39 40 41 42 43 45 46 47 48 48 49 49 49 48 47 46 45 45 46 47 47 46 45 44 44 44 44 44 45 45
46 46 45 45 44 40 38 39 40 42 43 42 41 42 42 41 39 39 39 39 40 40 39 39 38 35 33 30 27 25 25 25 25 25 26 28 30 31 32 32 32 34 35 35 35 36 36 36 37 37 36 36 36 37 38 39 40 42 43 44 45 46 47 47 48 48 48 47 46 45 44 44 45 46 45 44 43 42 42 42 42 43 44 45 45
47 47 47 47 47 45 41 41 42 43 44 45 44 43 43 44 42 41 41 42 42 42 41 41 40 38 36 34 31 29 29 28 26 26 27 29 30 32 33 33 33 34 35 36 37 37 37 37 38 37 36 36 36 37 38 40 41 42 44 44 45 45 46 46 46 46 46 45 44 44 44 44 44 43 41 41 40 40 40 41 42 43 44 45 46
50 51 52 52 52 50 46 44 45 45 45 45 45 45 45 46 46 44 44 45 44 44 44 45 44 42 40 39 36 34 33 30 25 24 27 29 31 33 34 34 34 35 36 37 39 39 39 39 39 38 37 37 37 38 39 40 41 43 43 43 44 44 45 45 45 44 44 43 43 43 43 42 41 40 39 38 38 38 38 40 41 43 44 44 45
53 54 54 55 55 55 54 53 51 48 46 45 47 48 49 49 50 49 48 47 47 47 47 48 48 47 46 46 44 39 34 29 25 25 27 30 32 35 36 35 35 35 37 39 40 40 41 41 40 38 38 37 37 38 39 40 41 42 42 42 43 43 43 43 43 43 43 43 43 42 41 39 38 37 36 35 35 36 38 39 41 42 43 43 43
56 56 55 56 57 58 60 61 60 57 53 49 50 52 52 52 53 53 51 50 49 49 48 50 52 50 49 51 53 47 36 28 25 26 27 30 34 36 35 35 35 36 38 40 41 42 43 42 41 39 38 38 38 38 39 40 41 41 41 41 41 41 41 42 42 42 42 42 42 40 37 37 36 34 33 34 35 36 38 39 40 41 41 41 41
60 61 60 60 61 61 62 63 64 63 61 58 55 55 56 56 56 56 56 53 51 51 51 54 55 53 51 54 59 57 46 32 26 27 29 32 35 35 35 35 36 37 39 41 42 43 44 43 41 39 38 38 38 39 39 40 40 39 39 39 39 39 40 40 41 41 41 40 38 36 35 34 32 31 32 34 36 37 38 38 39 39 40 40 40
62 63 64 64 64 64 63 64 64 64 66 66 63 60 58 58 58 58 58 57 57 57 57 58 59 56 55 57 60 59 51 37 28 29 31 33 35 36 36 36 36 38 39 41 42 43 43 42 39 38 38 38 38 39 39 38 38 38 38 38 38 38 39 40 40 40 39 37 36 34 33 31 31 32 34 36 37 38 38 38 38 38 38 39 38
60 62 62 62 62 61 61 62 63 63 64 67 69 67 63 61 60 60 61 62 65 65 64 64 63 60 60 62 60 56 52 43 34 32 33 34 36 38 38 36 36 38 39 40 42 43 41 39 37 38 38 38 38 37 37 37 37 37 36 37 37 38 38 39 39 38 36 35 34 32 30 30 31 33 35 36 37 38 37 37 36 36 37 37 37
59 59 59 59 59 61 62 62 62 62 61 62 66 67 66 65 64 65 66 67 69 71 71 69 66 64 65 65 61 56 52 45 37 34 35 37 39 41 39 36 36 38 39 40 42 42 39 36 36 37 37 37 37 36 36 36 36 35 35 36 36 37 37 37 37 36 34 33 31 30 29 30 33 35 36 37 37 37 37 36 35 35 36 37 37
59 60 61 62 63 64 66 66 66 65 63 61 62 65 68 69 69 71 72 69 66 67 71 70 67 65 67 66 60 54 50 44 38 36 37 40 42 42 38 35 37 39 39 40 41 40 37 35 36 36 36 36 35 35 35 35 34 35 35 35 35 36 35 35 35 34 33 31 29 28 29 31 34 35 36 36 36 36 36 36 35 35 36 36 37
62 65 68 70 70 71 71 70 69 68 67 66 65 65 65 67 69 73 76 74 67 61 62 66 67 66 65 62 57 51 46 42 39 38 39 42 44 41 37 36 39 39 38 39 40 38 35 35 36 35 35 34 34 34 33 33 34 34 34 34 34 34 34 33 33 32 30 29 27 28 30 32 34 35 36 36 36 36 36 36 35 35 36 37 37
63 67 70 72 74 75 74 73 72 70 69 68 67 66 66 67 68 71 76 80 73 60 56 62 67 67 64 60 56 51 45 41 39 41 42 44 43 40 37 39 40 39 38 39 38 36 35 35 35 34 34 33 33 32 32 33 33 33 33 33 33 33 32 32 31 30 28 27 27 28 31 33 34 35 35 35 35 35 35 35 35 35 36 37 38
60 62 65 68 74 75 72 71 71 71 72 74 72 69 68 70 71 71 73 78 73 62 60 66 69 69 67 62 58 55 50 44 42 45 46 43 40 39 40 40 40 38 38 38 36 35 35 35 34 33 32 32 31 31 31 32 32 33 33 33 32 32 31 31 29 28 26 26 27 29 31 33 33 34 34 34 34 34 35 35 35 35 36 36 37
55 57 59 62 66 66 62 60 60 63 71 82 85 77 68 69 74 74 71 70 68 65 70 74 73 69 65 59 56 56 53 46 45 47 46 43 42 42 41 41 41 40 38 36 35 34 34 34 33 32 31 30 30 31 31 32 33 33 33 32 31 31 30 28 27 25 24 25 27 29 31 32 32 33 33 33 33 34 34 34 34 35 35 36 37
53 53 50 47 45 44 45 45 47 47 49 58 72 75 69 71 76 72 64 60 60 64 73 77 73 65 57 52 51 52 50 47 47 47 45 44 45 44 41 40 40 38 35 34 33 34 34 33 32 31 30 30 30 30 31 32 33 33 32 31 29 29 27 26 25 24 24 25 27 29 30 30 31 31 31 32 32 33 33 34 34 34 35 35 36
42 34 29 27 24 24 27 32 40 44 35 28 40 50 54 58 62 62 62 62 60 62 68 70 64 52 43 42 45 47 47 46 47 48 47 46 44 42 39 38 36 33 32 32 33 33 32 32 31 30 29 29 29 30 32 33 34 32 31 29 27 27 26 25 24 24 24 26 27 28 29 29 29 29 30 31 31 32 32 33 33 34 34 34 35
30 24 24 24 20 19 19 21 34 44 39 29 30 37 42 45 45 48 55 58 54 51 52 50 43 34 30 33 39 42 43 45 47 48 47 44 41 38 35 33 31 31 31 32 32 32 32 31 30 29 28 28 29 30 33 34 33 31 29 28 27 27 26 25 24 24 25 26 27 27 27 27 27 28 28 29 30 31 31 32 33 33 33 34 34
34 34 32 27 21 19 18 16 21 27 23 21 27 34 39 40 39 42 48 51 49 44 38 31 26 25 27 32 37 40 43 45 47 47 43 39 38 36 33 31 31 31 32 32 32 31 31 30 29 28 27 28 29 31 33 33 32 30 29 28 27 26 25 25 24 24 25 25 25 25 25 24 25 26 27 27 29 29 30 31 32 33 33 33 34
34 33 28 21 18 18 17 12 13 16 13 9 12 17 22 26 29 32 35 37 36 33 27 24 24 27 30 34 38 41 43 46 47 45 41 37 35 34 32 31 32 32 31 32 32 31 31 30 28 27 27 28 30 32 33 32 31 30 28 27 26 25 25 24 24 24 25 24 24 24 23 22 23 24 25 26 28 29 30 31 32 33 33 33 33
28 24 22 20 16 14 14 13 10 10 10 9 7 4 3 6 10 13 15 17 19 21 22 25 28 31 34 37 40 43 45 47 46 43 39 34 31 31 31 32 32 32 31 32 31 31 30 29 27 26 28 29 31 32 32 31 30 29 28 27 26 25 24 24 25 25 25 24 23 22 21 21 21 22 24 26 27 28 30 31 32 33 33 33 33
22 19 18 18 15 12 12 13 12 11 10 10 9 8 8 8 9 11 14 17 20 23 26 29 32 35 38 41 43 45 47 47 44 41 36 30 29 30 31 32 32 32 32 32 31 30 29 28 26 27 28 30 31 31 31 30 30 28 27 26 25 24 24 25 25 25 24 23 22 21 20 20 21 22 24 25 27 28 29 31 32 33 34 33 33
22 21 20 19 18 17 16 15 14 14 13 13 14 14 14 14 16 18 20 22 25 28 31 34 36 39 41 42 44 45 45 42 39 35 31 28 29 30 32 32 32 32 32 31 30 29 28 27 27 27 29 30 30 30 30 30 29 28 26 25 24 24 24 25 26 25 24 22 21 20 19 19 20 22 24 26 27 28 29 30 31 33 33 34 34
22 23 23 21 21 21 20 19 18 18 18 18 19 19 20 20 21 23 26 29 31 33 35 36 37 39 42 43 43 42 40 36 33 30 28 28 30 31 32 32 32 32 31 30 29 27 27 27 28 28 29 29 30 30 30 30 29 27 26 24 24 24 25 25 26 26 24 22 21 20 19 20 21 22 24 26 27 28 29 30 31 32 33 34 34
23 24 24 24 24 23 23 22 22 22 21 21 22 23 25 26 26 27 30 32 33 35 36 38 39 41 42 42 38 34 32 31 29 28 28 30 31 31 32 32 32 31 30 28 27 26 27 28 29 29 29 29 30 30 30 29 27 26 25 25 24 25 25 26 26 27 25 23 22 21 20 20 21 23 24 26 27 28 29 29 30 31 32 33 34
28 27 27 26 25 24 23 23 24 25 26 26 25 26 27 29 29 30 32 35 38 41 41 40 39 38 36 33 30 28 28 29 29 29 30 31 31 31 31 32 31 29 28 27 26 27 28 29 30 29 29 29 30 29 28 27 26 26 25 25 25 26 26 27 27 27 26 24 23 22 21 21 22 23 25 26 27 28 29 29 30 31 31 32 33
30 30 29 29 27 26 26 26 27 27 29 30 31 31 32 33 32 32 32 33 34 35 35 34 32 30 29 27 27 27 28 28 29 30 31 31 31 31 31 31 29 27 27 27 27 28 29 29 30 29 29 29 29 28 28 27 26 26 25 26 26 27 27 27 28 28 27 25 24 22 22 22 23 24 25 26 27 28 29 29 30 30 31 31 32
31 32 31 31 30 30 29 28 28 29 30 32 32 33 33 32 30 29 29 28 25 24 26 27 28 28 27 27 26 27 28 29 30 30 30 30 31 31 30 29 28 28 28 29 29 29 29 30 30 30 29 29 29 28 27 27 27 26 26 27 28 28 29 29 29 28 28 26 25 24 23 23 24 25 25 26 27 28 29 29 30 30 30 30 31
32 33 34 34 35 35 34 34 35 35 35 35 32 28 27 28 27 24 22 22 21 21 23 23 22 22 25 26 25 25 26 28 28 28 29 30 31 30 29 29 29 30 31 31 30 30 29 29 29 30 30 30 29 29 28 28 28 28 28 28 29 29 29 30 30 29 28 27 26 25 25 25 25 25 26 27 28 28 29 29 30 30 30 30 30
30 32 33 35 36 34 33 34 36 34 31 30 28 24 25 28 27 24 21 20 20 21 22 22 21 22 24 24 24 25 27 28 28 28 29 31 31 31 31 31 32 32 32 32 31 30 30 29 29 29 29 30 29 29 29 29 29 29 29 30 30 30 30 31 31 30 29 28 27 27 27 27 26 26 26 27 28 28 29 29 30 30 30 30 30
27 27 28 31 32 30 29 31 31 27 24 23 23 22 23 25 25 24 24 23 22 22 23 25 27 30 29 28 29 32 32 31 31 31 31 32 33 33 33 34 34 33 33 32 31 31 30 30 29 29 29 30 30 30 31 31 31 30 30 31 31 31 31 32 31 31 30 29 29 28 28 28 28 27 27 27 28 28 29 29 30 30 30 30 30
Wind_Direction
278 277 272 265 259 253 248 246 246 246 245 243 242 243 246 250 253 256 255 253 253 246 238 235 233 232 236 243 251 261 270 277 285 295 307 318 322 322 323 324 326 328 330 332 332 333 333 333 335 337 336 331 323 316 311 308 306 306 306 307 308 310 312 316 318 318 317 318 318 319 321 322 322 322 321 318 316 312 304 295 287 282 279 276 273
280 278 275 269 263 256 251 246 245 245 244 243 241 242 245 248 250 254 253 252 249 239 232 232 231 230 231 238 248 256 264 273 281 291 306 318 321 320 319 320 322 325 326 327 328 328 329 328 329 332 334 332 327 320 314 310 309 310 311 311 309 307 310 314 316 317 316 316 316 318 319 320 320 318 316 314 314 312 307 299 290 284 280 278 277
276 277 278 274 265 258 255 252 249 247 245 243 242 242 244 245 248 250 249 249 245 235 228 227 227 227 229 235 246 254 262 269 276 290 308 317 318 316 316 318 321 323 324 325 325 325 325 324 323 326 328 328 325 322 319 315 314 314 315 315 312 310 311 314 316 317 316 315 315 317 318 318 316 314 311 311 311 312 309 303 296 290 283 278 277
270 275 277 275 271 266 262 258 254 251 247 243 241 241 242 243 245 246 246 247 242 233 228 225 223 223 227 235 244 253 260 265 276 295 310 314 313 313 316 319 322 323 322 322 323 323 323 322 320 320 322 322 321 321 320 320 318 316 315 315 314 313 313 314 315 315 315 315 315 316 316 314 312 309 307 308 310 311 309 305 301 295 287 280 277
266 271 274 276 276 272 267 264 262 257 249 242 237 237 238 239 241 243 244 245 239 231 229 225 220 220 226 234 242 250 258 266 282 300 308 310 312 316 319 321 322 323 322 320 321 322 323 322 321 319 318 319 319 319 320 321 320 317 315 314 313 313 313 312 312 312 313 314 315 315 313 310 308 305 304 306 309 309 308 306 304 299 290 282 278
263 268 272 277 278 273 268 267 268 261 250 237 230 230 232 233 236 241 244 243 235 230 228 224 220 221 226 233 240 249 257 270 286 299 304 308 314 318 319 321 323 324 324 322 323 324 324 325 323 320 319 319 319 318 319 320 319 316 314 312 312 313 312 311 310 310 312 312 312 310 308 307 306 305 304 306 307 307 307 306 304 301 295 286 279
263 267 271 277 279 273 266 263 265 262 249 232 224 224 227 229 234 240 244 241 233 229 228 224 223 225 228 233 240 249 259 273 287 296 302 309 315 316 317 320 324 326 325 323 324 326 327 326 324 320 319 321 320 318 318 318 318 315 312 311 311 311 311 309 309 309 309 308 307 306 306 305 305 304 304 305 306 305 305 304 302 299 297 293 282
265 268 270 277 282 275 263 256 256 255 247 235 229 227 228 229 232 238 243 240 232 229 227 224 225 227 229 234 241 249 259 273 285 292 300 309 313 314 316 320 323 324 324 324 326 327 327 327 324 320 318 318 317 316 315 315 315 312 310 309 310 309 308 307 307 307 306 306 306 305 305 304 303 302 303 304 304 303 302 302 300 297 297 296 290
262 266 269 278 286 277 263 254 252 251 248 243 240 239 237 233 232 236 242 240 232 229 228 226 228 230 231 236 243 249 259 271 282 289 298 307 311 313 316 318 321 324 326 326 326 327 327 326 323 319 316 314 313 312 312 313 313 311 309 308 308 308 308 307 307 307 307 307 306 305 304 303 302 302 303 303 302 302 301 300 299 298 297 296 295
259 265 269 275 279 276 266 258 254 253 252 251 249 248 246 241 236 237 240 239 233 231 230 229 230 231 232 236 240 246 257 269 279 288 297 305 309 311 315 320 324 327 329 329 328 325 323 324 323 319 316 315 312 310 310 313 314 313 311 310 309 308 308 308 308 308 307 307 305 304 303 302 303 303 303 302 300 300 299 298 298 298 297 297 296
256 262 267 269 270 271 271 267 262 259 257 256 255 253 252 248 242 239 239 237 233 232 233 232 232 232 232 235 238 246 257 268 280 290 297 301 305 309 316 324 328 330 330 330 329 323 320 322 325 321 318 318 314 311 312 314 315 314 312 310 308 308 308 308 308 307 307 305 303 303 303 303 303 303 302 300 300 299 298 298 298 298 298 298 296
257 261 266 267 266 268 271 273 272 269 265 262 259 256 254 251 246 242 240 238 233 232 234 233 232 233 233 236 242 250 259 269 281 287 291 297 303 310 320 326 329 330 329 328 327 323 320 323 325 323 321 320 317 314 315 315 314 312 310 308 308 308 309 308 307 306 306 305 303 303 303 303 303 302 301 300 300 299 299 299 299 299 299 299 296
263 265 267 267 267 267 270 272 275 277 276 270 263 258 255 253 250 246 242 239 235 233 232 231 231 232 234 239 245 250 258 268 277 281 288 297 305 313 321 326 328 329 328 327 327 324 323 323 323 323 323 320 317 316 316 314 313 311 309 308 309 309 309 307 306 306 306 304 304 303 303 303 303 302 301 301 300 299 299 300 300 300 299 298 297
260 264 267 268 266 265 267 270 273 277 278 276 270 263 258 255 252 248 245 243 240 235 232 230 230 232 234 238 243 248 256 267 274 280 290 301 308 315 321 324 326 327 327 327 328 327 326 324 322 322 322 319 317 316 315 313 312 310 308 309 309 309 308 307 306 306 305 304 304 303 303 303 303 302 301 300 300 300 300 300 301 300 299 299 298
258 265 269 270 266 262 262 268 271 274 275 277 277 273 265 258 255 253 251 249 244 238 233 230 229 231 235 240 245 251 259 269 275 283 294 303 310 317 321 322 323 324 325 326 326 326 326 325 323 321 319 318 317 316 313 312 311 309 309 309 309 308 307 306 306 305 305 304 304 303 303 303 302 302 301 301 301 300 300 300 300 299 299 299 299
260 264 268 271 270 264 260 262 267 271 273 274 278 280 274 265 260 257 255 254 249 242 237 232 230 233 237 243 250 256 265 272 279 289 298 305 311 316 319 320 321 322 323 324 325 325 324 325 323 319 316 318 318 315 312 310 309 308 308 309 308 307 306 306 305 304 304 304 303 303 303 303 303 302 302 302 302 302 301 301 301 300 300 300 300
260 263 266 269 271 270 264 260 261 266 270 272 276 280 280 272 264 261 259 257 253 247 241 235 233 236 241 247 253 258 266 274 282 292 299 304 310 314 316 318 319 321 321 322 324 325 325 326 324 318 316 319 319 315 311 308 307 308 308 308 308 306 305 305 305 304 303 303 303 303 303 303 303 303 303 303 303 303 303 303 303 303 303 302 301
260 262 264 266 270 270 264 259 259 261 265 270 273 276 279 276 268 265 262 258 253 248 241 236 236 240 244 248 253 257 264 274 282 291 298 303 307 310 313 316 318 319 319 320 322 324 325 326 324 320 320 321 318 314 312 309 308 309 309 308 307 306 305 305 304 303 303 303 303 304 304 304 304 304 304 305 305 304 304 304 304 304 303 303 302
265 265 265 267 268 265 258 255 257 258 261 266 269 272 275 275 270 265 261 256 251 246 241 238 239 243 246 249 252 257 265 273 282 289 294 299 303 306 309 313 316 317 317 318 320 323 324 324 322 320 320 319 317 315 314 312 311 310 309 307 306 305 304 304 303 303 304 304 304 304 305 305 305 305 306 306 306 306 305 305 304 304 304 304 303
268 267 265 264 262 257 253 252 254 257 258 261 264 267 271 272 269 266 261 254 248 245 243 242 241 243 246 248 252 258 265 273 279 285 291 295 299 301 305 310 314 315 315 317 319 322 323 321 318 318 318 316 315 315 313 311 310 308 307 306 305 303 303 303 303 304 304 304 305 305 305 305 306 306 307 307 307 307 306 306 306 306 306 305 305
267 267 265 264 260 254 251 249 250 254 256 255 256 260 265 268 267 265 260 253 248 247 245 243 242 243 246 248 252 258 264 270 276 282 287 291 294 297 301 306 310 312 313 316 318 320 321 318 316 316 316 314 312 311 310 308 307 305 305 304 303 302 302 303 304 305 305 305 306 306 306 307 308 309 309 308 308 308 308 309 309 309 309 309 307
265 265 266 266 263 257 252 248 247 250 253 252 250 252 258 262 264 262 259 254 251 248 245 242 241 243 245 247 250 254 259 266 271 276 281 285 290 294 298 302 307 309 312 315 317 318 319 317 314 313 313 311 309 308 307 306 305 304 304 303 302 302 303 304 305 305 305 306 306 306 308 310 310 310 309 309 309 310 311 312 313 312 312 310 308
264 265 265 266 266 263 257 248 243 246 252 253 251 249 251 255 258 258 258 256 252 247 243 242 242 243 245 246 248 251 255 259 264 269 275 281 286 290 294 298 303 307 311 314 315 316 317 315 313 311 309 308 307 306 305 304 303 303 302 302 302 303 304 306 306 305 305 306 307 309 310 311 310 309 310 311 312 314 315 316 315 315 314 312 310
265 265 266 265 266 266 264 254 245 243 247 250 251 250 248 249 252 253 254 254 252 246 243 243 243 244 244 244 243 246 250 252 257 265 272 278 283 286 289 294 301 306 311 313 313 315 316 315 311 308 306 305 305 304 303 303 302 302 301 302 303 305 306 306 305 305 306 307 309 311 311 310 310 310 312 314 316 317 318 318 317 317 316 314 312
264 265 266 265 265 265 265 262 256 249 246 245 248 250 249 248 248 250 250 252 252 250 248 248 248 247 247 245 243 243 247 252 257 264 271 276 281 284 287 292 301 307 309 311 312 313 315 314 309 305 303 303 303 302 302 302 301 301 302 304 306 307 306 305 305 306 308 309 310 312 311 310 311 313 315 317 318 319 320 320 320 319 318 317 315
264 264 264 265 265 263 263 264 265 262 257 251 246 246 247 247 247 247 247 249 251 251 250 251 252 253 253 253 251 248 250 256 260 264 271 276 279 284 288 293 300 305 306 308 310 311 312 310 306 302 301 301 301 301 301 300 301 302 305 307 307 307 305 305 307 308 309 310 311 312 311 312 314 316 318 318 320 321 322 321 321 321 322 322 320
265 266 266 265 266 265 265 266 268 269 268 264 255 247 244 245 245 246 246 247 248 248 247 249 252 253 255 256 255 252 251 258 265 265 271 276 279 284 289 292 297 301 302 305 308 309 309 307 302 300 301 300 299 300 300 300 303 306 308 308 307 305 306 306 308 309 310 311 312 312 313 315 317 319 319 320 321 321 321 321 323 325 326 326 323
264 265 266 265 265 266 266 267 267 267 267 266 261 254 247 243 243 244 244 246 247 247 246 247 250 251 251 254 257 255 252 258 269 270 271 276 280 283 286 289 293 297 299 303 306 308 307 304 300 299 299 298 298 299 300 303 307 308 309 308 307 306 306 307 308 310 311 312 313 314 316 318 319 320 321 321 321 320 321 323 326 328 329 328 326
263 263 264 264 265 265 264 264 263 263 262 261 260 257 251 245 243 242 242 242 243 244 245 245 247 249 249 251 257 258 254 259 270 272 271 276 278 279 281 284 288 293 297 301 304 305 303 300 297 297 297 296 298 301 303 306 309 309 309 308 306 306 306 307 309 311 312 313 315 317 319 319 320 321 322 321 320 320 322 325 328 330 331 330 328
263 263 262 262 262 262 262 262 262 262 262 261 260 259 254 248 243 240 240 240 239 239 241 241 242 245 247 250 256 258 255 259 269 270 269 273 275 276 277 280 285 292 297 300 302 302 299 297 295 294 295 297 300 303 306 308 309 309 308 307 306 306 307 309 311 312 313 315 317 318 319 320 321 322 321 320 320 321 322 325 328 330 332 332 331
267 266 265 264 263 263 264 265 265 263 261 259 258 257 255 251 246 240 240 243 243 241 241 241 241 241 243 248 255 257 256 259 266 267 267 271 274 274 276 280 286 292 296 298 299 298 296 293 293 294 295 298 301 305 307 309 309 308 306 305 306 308 309 310 311 313 314 317 318 318 319 320 321 322 321 320 320 321 323 325 327 330 332 334 333
270 270 269 269 268 268 267 266 265 264 261 258 256 253 252 251 249 245 241 242 247 248 244 242 243 243 243 247 254 256 257 261 263 264 268 271 273 274 275 280 286 290 294 296 296 294 292 291 292 294 296 299 303 306 308 308 307 305 305 306 308 310 310 311 312 314 316 317 317 317 319 321 321 321 320 320 321 321 323 324 326 329 332 334 335
269 269 270 269 269 269 267 265 265 263 261 258 255 252 252 252 252 251 244 238 242 250 245 238 240 243 244 248 252 255 260 264 263 264 267 270 271 273 275 280 285 288 290 293 292 289 289 291 292 294 296 299 304 306 306 305 304 305 307 309 310 310 311 311 313 315 316 316 316 317 320 321 321 321 321 321 321 322 323 324 326 328 331 334 336
270 271 271 271 270 268 267 267 266 262 261 259 252 248 249 249 251 256 249 235 235 245 245 240 241 244 245 248 252 255 261 265 262 262 266 267 268 272 275 279 283 285 286 288 287 286 287 290 291 293 296 300 303 303 302 303 305 307 309 310 310 311 312 312 313 314 315 315 316 318 320 321 321 321 321 321 322 323 324 325 327 329 331 334 337
276 278 275 273 271 267 264 264 261 257 260 259 251 245 244 244 246 251 248 237 233 240 242 239 240 243 245 248 251 254 258 259 258 261 264 265 266 270 274 277 280 282 283 283 282 283 286 289 290 292 296 298 300 300 301 304 307 308 309 310 311 312 313 313 313 314 313 313 315 317 319 320 321 322 322 323 324 325 326 327 328 330 332 335 337
286 285 279 276 274 266 258 254 251 253 257 250 239 236 237 240 241 243 240 231 227 231 235 236 238 241 245 247 247 249 251 253 256 261 264 264 266 270 274 277 278 279 278 278 279 282 285 287 289 292 294 296 297 299 303 306 307 308 309 311 312 312 312 311 312 311 310 311 314 317 318 321 322 324 324 325 326 327 329 330 331 332 333 335 337
290 290 286 285 283 271 259 247 244 250 254 233 216 215 217 221 228 230 225 223 224 228 233 236 236 237 240 240 239 243 248 252 257 261 263 266 269 272 274 275 275 274 274 275 279 282 284 285 288 290 291 293 297 301 305 306 306 308 310 311 311 311 310 309 309 308 308 310 313 316 319 322 325 326 326 327 329 331 332 332 332 333 334 336 337
281 288 301 305 297 286 280 261 246 247 249 238 224 217 209 209 216 217 215 218 223 226 228 229 230 236 241 240 241 247 253 255 259 261 262 267 272 274 273 271 269 269 272 275 278 281 282 284 286 287 290 294 299 303 304 304 306 308 310 309 310 310 309 308 307 306 307 310 313 317 321 324 327 328 329 331 333 335 335 335 334 334 335 336 337
274 283 297 304 303 301 301 283 254 247 240 222 214 212 207 207 212 212 213 218 222 223 225 233 242 250 251 248 249 254 256 258 260 261 263 270 274 273 269 266 265 268 272 274 277 279 280 282 284 286 290 297 301 303 303 304 306 308 308 308 309 310 308 307 304 303 305 309 313 317 322 326 328 329 331 334 337 339 338 337 336 336 336 337 337
281 288 293 297 306 316 320 306 267 250 243 225 206 199 196 200 207 211 215 221 224 228 238 250 256 255 253 252 255 258 259 261 262 262 264 270 271 267 263 263 265 268 271 273 276 278 279 281 284 287 293 299 301 302 302 304 306 307 307 307 309 309 306 304 301 300 303 308 312 317 322 325 328 330 332 336 339 340 340 339 339 338 338 337 338
286 291 290 287 298 316 325 325 314 284 272 282 297 295 250 225 221 223 229 234 239 246 251 253 253 254 255 257 259 260 260 261 262 263 266 267 264 260 260 262 265 269 271 273 274 276 278 281 284 290 295 299 300 300 302 304 305 305 306 307 309 307 304 300 296 297 302 308 312 316 320 324 327 329 332 335 338 339 340 340 340 340 339 338 338
284 291 291 286 291 304 309 310 316 316 309 306 309 308 300 286 269 260 257 254 252 252 252 254 256 257 258 260 261 260 261 262 264 265 264 260 257 257 260 263 266 268 270 271 273 275 278 282 286 291 296 298 299 300 301 303 304 304 305 307 306 303 299 295 293 296 302 307 310 313 316 320 324 326 329 332 334 336 338 339 340 341 340 339 338
273 285 292 286 283 288 291 289 292 296 296 294 291 287 282 276 269 264 260 255 253 253 253 255 257 257 258 260 261 262 264 265 264 260 256 253 254 257 260 263 265 267 268 269 272 275 279 283 288 292 295 296 297 299 300 301 302 303 304 304 302 298 294 291 290 294 299 303 306 308 310 314 319 323 326 329 332 334 336 338 339 340 340 340 339
267 278 287 285 279 278 278 278 280 283 284 284 283 280 277 273 270 267 264 261 260 257 255 254 256 259 261 264 266 268 267 263 257 253 252 253 254 257 259 262 264 265 267 270 272 275 280 285 289 291 293 295 296 297 298 300 301 301 301 301 298 293 290 287 287 291 296 300 302 303 305 309 315 319 323 326 329 332 334 336 337 338 339 339 339
263 274 282 282 278 276 275 275 275 274 275 276 276 275 273 271 269 269 269 268 265 263 260 260 261 264 266 268 268 266 262 257 253 252 252 253 254 257 259 261 264 265 268 270 273 277 281 285 287 290 292 294 295 296 297 298 298 298 298 298 295 290 286 284 285 290 294 297 298 299 301 305 310 315 320 324 326 329 332 334 336 336 338 338 339
261 271 278 277 273 270 270 271 272 272 272 272 271 269 268 267 269 271 273 272 269 265 261 260 260 260 261 260 258 254 252 251 252 252 253 255 257 259 260 262 265 267 268 271 274 278 281 283 286 289 291 292 293 294 295 296 295 295 295 294 290 285 282 281 283 287 291 293 294 295 296 300 306 311 316 320 323 327 330 333 334 335 336 337 338
262 267 269 267 264 263 264 265 266 267 268 268 268 266 266 267 271 273 272 270 267 262 257 255 253 252 251 250 248 248 249 251 253 255 257 258 259 260 262 265 267 269 270 272 275 277 279 282 285 288 290 290 291 292 293 294 293 292 291 288 285 281 279 278 280 283 287 289 290 290 292 296 301 307 312 316 321 324 327 330 332 333 334 335 336
259 262 262 259 257 258 261 262 260 259 259 262 264 265 265 264 265 265 265 264 263 257 253 250 249 247 245 243 243 245 249 253 256 257 259 260 262 264 267 269 270 270 271 272 273 275 277 280 284 287 289 290 290 291 292 291 290 288 286 283 279 277 275 275 277 280 283 286 287 287 289 292 296 302 308 313 317 322 325 327 329 331 332 333 335
256 256 256 254 253 254 257 257 257 256 257 258 259 257 253 251 248 246 250 257 259 254 248 245 244 242 239 237 241 250 257 259 260 262 263 266 268 270 270 270 269 270 270 271 273 275 277 280 283 286 288 289 290 290 290 290 288 286 282 278 275 273 272 272 274 277 280 283 285 286 287 289 292 298 304 309 314 319 322 324 325 328 329 331 333
257 256 254 253 251 250 248 247 247 248 250 252 250 241 234 234 233 230 232 240 248 249 244 237 231 226 225 233 251 266 270 267 267 268 269 270 270 270 269 269 269 269 271 273 275 276 278 279 281 283 285 287 288 289 289 288 286 283 279 275 272 271 270 270 272 275 278 281 283 284 284 286 289 294 300 306 311 316 319 320 322 324 326 328 330
256 255 252 248 246 242 236 234 233 231 231 236 237 232 226 224 224 223 225 227 231 238 240 234 227 224 229 245 265 275 274 271 271 270 269 268 268 268 268 268 269 271 272 273 274 276 277 278 279 280 282 284 286 287 288 286 284 281 277 273 270 268 268 269 271 274 276 279 281 282 282 284 287 291 296 302 307 311 315 317 319 321 323 325 328